Regional Weather Roundup
Issued by NWS

Home | Current Version | Previous Version | Graphics & Text | Print | Product List | Glossary On
Versions: 1 2 3 4 5 6 7 8 9 10 11 12 13 14 15 16 17 18 19 20 21 22 23 24 25 26 27 28 29 30 31 32 33 34 35 36 37 38 39 40 41 42 43 44 45 46 47 48 49 50
000
ASUS45 KBOU 130610
RWRCO

WEATHER ROUNDUP FOR COLORADO
NATIONAL WEATHER SERVICE DENVER/BOULDER CO
1200 AM MDT SUN JUL 13 2014

NOTE: "FAIR" INDICATES FEW OR NO CLOUDS BELOW 12000 FEET WITH NO
SIGNIFICANT WEATHER AND/OR OBSTRUCTIONS TO VISIBILITY.

COZ001>005-013-030-031-130700-
...NORTHWEST COLORADO...

CITY           SKY/WX    TMP DP  RH WIND       PRES   REMARKS
CRAIG          CLEAR     61  56  83 CALM      30.33R
HAYDEN         CLEAR     64  50  59 SE9       30.35S
MEEKER         CLEAR     64  51  62 E3        30.32R
MOUNT WERNER   NOT AVBL
STEAMBOAT SPGS CLEAR     61  50  65 NW3       30.38R
WALDEN         PTCLDY    54  45  71 N8        30.50R
$$

COZ006>008-011-130700-
...WEST CENTRAL VALLEYS...

CITY           SKY/WX    TMP DP  RH WIND       PRES   REMARKS
GRAND JUNCTION PTCLDY    81  51  35 CALM      30.15R
MONTROSE       PTCLDY    75  50  41 E10       30.26R
EAGLE          MOCLDY    66  57  72 W3        30.37R
RIFLE          PTCLDY    70  56  61 SE9       30.24R
DELTA          CLEAR     76  53  45 N7        30.22R
NUCLA          CLEAR     72  46  40 SE9       30.29R
$$

COZ017>023-064>068-130700-
...SOUTHWEST COLORADO...

CITY           SKY/WX    TMP DP  RH WIND       PRES   REMARKS
DURANGO        MOCLDY    61  53  75 N7        30.33R
CORTEZ         PTCLDY    69  50  50 N3        30.26R
PAGOSA SPRINGS MOCLDY    64  48  55 CALM      30.43R
TELLURIDE      PTCLDY    57  48  72 E6        30.51S
WOLF CREEK PAS NOT AVBL
$$

COZ009-010-012-014-032>034-037-058>063-130700-
...CENTRAL COLORADO...

CITY           SKY/WX    TMP DP  RH WIND       PRES   REMARKS
ASPEN          PTCLDY    61  49  64 SW8       30.43R
BUENA VISTA    MOCLDY    56  53  91 W6        30.52F
COPPER MTN     PTCLDY    54  43  66 E6        30.77S
BERTHOUD PASS  HAZE      41  28  60 SE12      30.83S VSB<1/4
COTTONWOOD PAS CLOUDY    54  50  87 CALM      30.64F
GUNNISON       MOCLDY    57  50  77 N6        30.49S
KREMMLING      PTCLDY    61  52  72 CALM      30.46R
LEADVILLE      CLOUDY    50  48  93 CALM      30.63S
MONARCH PASS   FOG       45  43  93 E22       30.85F VSB<1/4
SALIDA         MOCLDY    62  54  73 S5        30.57S
SUNLIGHT       PTCLDY    55  48  76 NE5       30.67S
WILKERSON PASS CLOUDY    45  45 100 E3        30.76F
$$

COZ069>075-130700-
...SAN LUIS VALLEY/SANGRE DE CRISTO MOUNTAINS...

CITY           SKY/WX    TMP DP  RH WIND       PRES   REMARKS
ALAMOSA        CLOUDY    60  51  72 CALM      30.45R
LA VETA PASS   LGT RAIN  46  45  93 E8        30.67S VSB 3/4
SAGUACHE       NOT AVBL
$$

COZ035-036-038>040-130700-
...NORTHERN COLORADO FRONT RANGE...

CITY           SKY/WX    TMP DP  RH WIND       PRES   REMARKS
DENVER INTL AP MOCLDY    64  59  83 SW9       30.34S
DMNS CITY PARK   N/A     64  58  82 S3        30.34S
AURORA         NOT AVBL
FRONT RANGE AP NOT AVBL
ERIE MUNI ARPT MOCLDY    64  58  82 CALM      30.33S
BOULDER MUN AP MOCLDY    64  59  82 CALM      30.34S
CENTENNIAL     CLOUDY    63  56  78 SW10      30.37F
BROOMFIELD     MOCLDY    64  55  72 W7        30.37S
FORT COLLINS   PTCLDY    64  61  88 S6        30.34R
LONGMONT       PTCLDY    64  60  86 CALM      30.34S
$$

COZ041-046-047-076>085-087-088-130700-
...PIKES PEAK/PALMER DIVIDE AND SOUTHERN FOOTHILLS...

CITY           SKY/WX    TMP DP  RH WIND       PRES   REMARKS
COLO. SPRINGS  CLOUDY    62  59  90 W6        30.41F
A. F. ACADEMY  NOT AVBL
ELLICOTT       CLOUDY    61  58  90 CALM      30.39
FALCON         CLOUDY    59  56  92 W5        30.45S
FORT CARSON    NOT AVBL
LIMON          CLOUDY    64  61  90 N8        30.36R
MONUMENT HILL  CLOUDY    55  54  94 W6        30.44R
TRINIDAD       LGT RAIN  63  60  90 NW8       30.41F
$$

COZ042>045-048>051-090-091-130700-
...NORTHEAST COLORADO...

CITY           SKY/WX    TMP DP  RH WIND       PRES   REMARKS
GREELEY ARPT   NOT AVBL
AKRON          MOCLDY    69  62  78 CALM      30.30R
BURLINGTON     CLOUDY    69  63  81 CALM      30.26R
WRAY             N/A     69  66  88 CALM      30.23R
STERLING       MOCLDY    70  64  83 CALM      30.26R
HOLYOKE        MOCLDY    68  61  77 N3        30.23S
FORT MORGAN    MOCLDY    64  59  85 NW7       30.31R
$$

COZ086-089-092>099-130700-
...SOUTHEAST COLORADO...

CITY           SKY/WX    TMP DP  RH WIND       PRES   REMARKS
PUEBLO         LGT RAIN  65  63  93 SW10      30.33F
LA JUNTA       HVY RAIN  65  63  93 W13       30.31S FOG
LAMAR          RAIN      67  64  90 W20       30.24S
SPRINGFIELD      N/A     66  61  84 NW18      30.25S
$$



USA.gov is the U.S. government's official web portal to all federal, state and local government web resources and services.